Weather History for CYHK - January, 2014

Change the Weather History Date:

Saturday, January 18, 2014

  Actual Average Record
Temperature  
Mean Temperature -42 °F -  
Max Temperature -38 °F -21 °F 17 °F (2009)
Min Temperature -46 °F -31 °F -45 °F (2014)
Degree Days  
Heating Degree Days 107    
Moisture  
Dew Point -51 °F    
Average Humidity 60    
Maximum Humidity 67    
Minimum Humidity 39    
Precipitation  
Precipitation 0.00 in - - ()
Sea Level Pressure  
Sea Level Pressure 29.99 in    
Wind  
Wind Speed 14 mph ()    
Max Wind Speed 24 mph    
Max Gust Speed 26 mph    
Visibility 2.6 miles    
Events Snow    
Averages and records for this station are not official NWS values.
T = Trace of Precipitation, MM = Missing Value Source: Averaged Metar Reports

Daily Weather History Graph

Daily Weather History Graph

Search for Another Location

Airport or City:

Trip Planner

Search our weather history database for the weather conditions in past years. The results will help you decide how hot, cold, wet, or windy it might be!

Date:

Astronomy

Jan. 18, 2014 Rise Set
Actual Time 10:56 AM CST 2:12 PM CST
Civil Twilight 9:15 AM CST 3:53 PM CST
Nautical Twilight 7:54 AM CST 5:14 PM CST
Astronomical Twilight 6:45 AM CST 6:23 PM CST
Moon 7:15 PM CST (1/18) 9:45 AM CST (1/18)
Length of Visible Light 6h 37m
Length of Day
3h 15m
Waning Gibbous, 94% of the Moon is Illuminated
Jan 18
Waning Gibbous
Jan 23
Last Quarter
Jan 30
New
Feb 6
First Quarter
Feb 14
Full

Hourly Weather History & Observations

Time (CST) Temp. Windchill Dew Point Humidity Pressure Visibility Wind Dir Wind Speed Gust Speed Precip Events Conditions
12:00 AM -46 °F - -55 °F 39% 29.88 in - North 4.6 mph - -  
12:00 AM -45.4 °F -77.5 °F -54.4 °F 60% 29.89 in 3.0 mi North 15.0 mph - N/A   Haze
1:00 AM -45.4 °F -78.5 °F -52.6 °F 66% 29.88 in 3.0 mi NNW 16.1 mph - N/A   Haze
1:23 AM -43.6 °F -71.7 °F -52.6 °F 60% 29.88 in 2.5 mi NNW 11.5 mph 19.6 mph N/A   Haze
1:34 AM -43.6 °F -71.7 °F -52.6 °F 60% 29.88 in 2.0 mi NNW 11.5 mph - N/A   Haze
1:44 AM -45.4 °F -72.6 °F -54.4 °F 60% 29.88 in 2.5 mi NNW 10.4 mph 17.3 mph N/A   Haze
1:47 AM -45.4 °F -69.5 °F -54.4 °F 60% 29.89 in 3.0 mi NNW 8.1 mph 17.3 mph N/A   Haze
2:00 AM -45.4 °F -75.3 °F -54.4 °F 60% 29.89 in 3.0 mi NNW 12.7 mph - N/A   Haze
3:00 AM -45.4 °F -78.5 °F -54.4 °F 60% 29.88 in 3.0 mi NNW 16.1 mph - N/A   Haze
3:51 AM -43.6 °F -76.2 °F -52.6 °F 60% 29.89 in 2.5 mi NNW 16.1 mph 25.3 mph N/A   Haze
4:00 AM -43.6 °F -76.2 °F -52.6 °F 60% 29.89 in 2.5 mi NNW 16.1 mph - N/A   Haze
4:38 AM -43.6 °F -74.1 °F -52.6 °F 60% 29.90 in 3.0 mi North 13.8 mph 23.0 mph N/A   Haze
5:00 AM -43.6 °F -75.2 °F -52.6 °F 60% 29.91 in 3.0 mi NNW 15.0 mph - N/A   Haze
5:56 AM -43.6 °F -76.2 °F -52.6 °F 60% 29.90 in 2.5 mi NNW 16.1 mph 24.2 mph N/A   Haze
6:00 AM -44 °F - -52 °F 41% 29.90 in - NNW 8.1 mph - -  
6:00 AM -43.6 °F -76.2 °F -52.6 °F 60% 29.90 in 2.5 mi NNW 16.1 mph 24.2 mph N/A   Haze
6:25 AM -43.6 °F -78.9 °F -52.6 °F 60% 29.91 in 2.2 mi NNW 19.6 mph 25.3 mph N/A   Haze
6:42 AM -43.6 °F -75.2 °F -52.6 °F 60% 29.91 in 2.5 mi North 15.0 mph 24.2 mph N/A   Haze
6:55 AM -43.6 °F -77.1 °F -52.6 °F 60% 29.91 in 2.0 mi North 17.3 mph 24.2 mph N/A   Haze
7:00 AM -43.6 °F -78.0 °F -52.6 °F 60% 29.91 in 1.8 mi North 18.4 mph 24.2 mph N/A   Haze
8:00 AM -43.6 °F -80.4 °F -52.6 °F 60% 29.91 in 2.0 mi North 21.9 mph - N/A   Haze
8:57 AM -41.8 °F -73.9 °F -50.8 °F 60% 29.94 in 2.5 mi NNE 16.1 mph - N/A   Haze
9:00 AM -41.8 °F -73.9 °F -50.8 °F 60% 29.94 in 2.5 mi NNE 16.1 mph - N/A   Haze
9:59 AM -41.8 °F -74.8 °F -50.8 °F 60% 29.97 in 3.0 mi NNE 17.3 mph 23.0 mph N/A   Haze
10:00 AM -41.8 °F -74.8 °F -50.8 °F 60% 29.97 in 3.0 mi NNE 17.3 mph 23.0 mph N/A   Haze
10:12 AM -41.8 °F -74.8 °F -50.8 °F 60% 29.98 in 3.0 mi NNE 17.3 mph - N/A Snow Light Snow
10:26 AM -41.8 °F -78.1 °F -50.8 °F 60% 29.99 in 3.0 mi NNE 21.9 mph - N/A   Haze
11:00 AM -40.0 °F -76.4 °F -49.0 °F 60% 29.99 in 3.0 mi NE 23.0 mph - N/A   Haze
11:02 AM -40.0 °F -77.1 °F -49.0 °F 60% 29.99 in 2.2 mi NE 24.2 mph - N/A   Haze
11:14 AM -40.0 °F -76.4 °F -49.0 °F 60% 30.00 in 2.5 mi NE 23.0 mph - N/A   Haze
11:41 AM -40.0 °F -76.4 °F -49.0 °F 60% 30.01 in 3.0 mi NE 23.0 mph - N/A   Haze
12:00 PM -42 °F - -50 °F 44% 30.01 in - NNE 6.9 mph - -  
12:00 PM -41.8 °F -77.3 °F -49.0 °F 67% 30.01 in 3.0 mi NE 20.7 mph - N/A   Haze
1:00 PM -41.8 °F -73.9 °F -49.0 °F 67% 30.02 in 3.0 mi NNE 16.1 mph - N/A   Haze
1:26 PM -40.0 °F -73.3 °F -49.0 °F 60% 30.03 in 2.5 mi NNE 18.4 mph - N/A   Haze
1:48 PM -40.0 °F -70.6 °F -49.0 °F 60% 30.05 in 2.2 mi North 15.0 mph - N/A   Haze
1:56 PM -41.8 °F -72.9 °F -50.8 °F 60% 30.05 in 2.5 mi North 15.0 mph - N/A   Haze
2:00 PM -41.8 °F -72.9 °F -50.8 °F 60% 30.05 in 2.5 mi NNE 15.0 mph - N/A   Haze
2:43 PM -41.8 °F -74.8 °F -50.8 °F 60% 30.07 in 2.2 mi North 17.3 mph 25.3 mph N/A   Haze
3:00 PM -41.8 °F -75.7 °F -50.8 °F 60% 30.07 in 2.2 mi North 18.4 mph 24.2 mph N/A   Haze
3:58 PM -41.8 °F -73.9 °F -49.0 °F 67% 30.09 in 2.5 mi North 16.1 mph 24.2 mph N/A   Haze
4:00 PM -41.8 °F -73.9 °F -49.0 °F 67% 30.09 in 2.5 mi North 16.1 mph 24.2 mph N/A   Haze
4:21 PM -41.8 °F -76.5 °F -50.8 °F 60% 30.09 in 2.2 mi North 19.6 mph - N/A   Haze
4:35 PM -41.8 °F -74.8 °F -50.8 °F 60% 30.10 in 2.5 mi North 17.3 mph 24.2 mph N/A   Haze
4:52 PM -41.8 °F -76.5 °F -50.8 °F 60% 30.10 in 2.2 mi North 19.6 mph 26.5 mph N/A   Haze
5:00 PM -41.8 °F -77.3 °F -50.8 °F 60% 30.11 in 2.2 mi North 20.7 mph - N/A   Haze
5:40 PM -40.0 °F -70.6 °F -49.0 °F 60% 30.12 in 2.5 mi North 15.0 mph 21.9 mph N/A   Haze
6:00 PM -42 °F - -50 °F 42% 30.12 in - North 6.9 mph - -  
6:00 PM -41.8 °F -72.9 °F -50.8 °F 60% 30.13 in 2.5 mi North 15.0 mph 20.7 mph N/A   Haze
6:47 PM -41.8 °F -73.9 °F -49.0 °F 67% 30.13 in 3.0 mi North 16.1 mph 23.0 mph N/A   Haze
7:00 PM -41.8 °F -72.9 °F -49.0 °F 67% 30.13 in 3.0 mi North 15.0 mph 20.7 mph N/A   Haze
8:00 PM -40.0 °F -70.6 °F -49.0 °F 60% 30.13 in 3.0 mi North 15.0 mph - N/A   Haze
9:00 PM -40.0 °F -70.6 °F -49.0 °F 60% 30.14 in 3.0 mi North 15.0 mph - N/A   Haze
10:00 PM -38.2 °F -69.2 °F -47.2 °F 61% 30.15 in 3.0 mi North 16.1 mph - N/A   Haze
11:00 PM -41.8 °F -75.7 °F -49.0 °F 67% 30.16 in 3.0 mi North 18.4 mph - N/A   Haze